CZ-3C DEB, 40818

Orbit data source: Space-Track

CZ-3C DEB, 40818 is space debris in HEO originally from a launch on Sun, 31 Oct 2010 UTC launched from the Xichang Space Center, China (XSC). Debris objects in space refer to the collection of defunct objects orbiting the Earth. Examples of debris include non-operational satellites, rocket bodies, and fragments generated from explosions, collisions, or faulty payload assembly.

Loading next visibility...
CZ-3C DEB details
Identifier
40818, 2010-057AK
Orbit
HEO
Last TLE update2 days ago
Origin
Flag of CNCASC (CN / PRC)
ManufacturerCALT
MissionSpacecraft
Bus & MotorUnknown
MassUnknown
Launch date (UTC)
2010-10-31 (14 years ago)
Launch vehicleUnknown
Launch site
Xichang Space Center, China (XSC)
Object type
Payload
Rocket body
Debris
Shape & HBRUnknown
Radar Cross SectionSmall (<0.1 m²)

Expand to show TLE details & history

TLE from 2 days ago
0 CZ-3C DEB
1 40818U 10057AK  24359.24079672 -.00000132  00000-0  70274-3 0  9994
2 40818  20.4893 285.3168 7129381 181.6382 173.3432  2.25720075 80777
Epoch: 2024-12-24T05:46Z
Definitive object data (Epoch: 2024-12-24T05:46:44.836Z)
Latitude0.00009°
Longitude105.38535°
Altitude35,644.037 km
Speed1.653 km/s
True Right ascension19h 01m 17s
True Declination0° 00' 00"
Sunlit
Object was in daylight at TLE epoch
Visualization TLE readout
Latitude-11.53079°
Longitude-42.64049°
Altitude1,109.111 km
Speed9.499 km/s
Apparent Right ascension07h 09m 30s
Apparent Declination-30° 02' 03"
Sunlit
Object is in full shadow
Visualization observer readout
Local Sidereal Time15:56:09
Azimuth268.705° W
Elevation-49.69°
Doppler factor1
Orbital elements
Apogee altitude35,678.911 km
Perigee altitude669.973 km
Semi-major axis24,552.579 km
Eccentricity0.7129381
Inclination20.4893°
RAAN285.3168°
Arg. of periapsis181.6382°
True anomaly178.40809°
Mean anomaly173.3432°
Eccentric anomaly176.11257°
Mean motion0.56415 °/min
BSTAR0.00070274
Orbital period638.12 mins
Loading maneuver chart data...
Loading historical data...
Loading historical data...
Loading historical data...
Loading historical data...
Loading historical data...
Loading historical data...
Loading historical data...

CZ-3C DEB Visibility forecast

Observer location: undefined°, undefined

Span
Click to sort rows by Start time (UTC) header in descending order
Start Az.
Max El. time (UTC)
Max El. Az.
Max El.
End time (UTC)
End Az.
567 mins2024-12-26 17:24:58.138Z204.118° SW2024-12-27 02:38:58.138Z205.093° SW36.077°2024-12-27 02:51:58.138Z137.64° SSE
116 mins2024-12-27 14:37:58.138Z160.691° S2024-12-27 16:33:58.138Z145.827° SSE25.495°2024-12-27 16:33:58.138Z145.827° SSE
|